User: anonymous   Login
Location: Unspecified
(0.0000°N, 0.0000°E)
Time: 03:19:42
(UTC+00:00)
Language:

STARLINK-11583 [DTC] - Orbit

View from above orbital plane
View from above orbital plane
View from above satellite
View from above satellite

Ground track
Ground track

The orbit is defined by the following mean orbital elements,

1 62991U          26145.01543663 +.00000000 +00000-0 +12883-2 0 00000
2 62991  42.9969 261.6416 0003388 282.0407  78.0081 15.70907333    01
Epoch (UTC): 25 May 2026 00:22:13
Eccentricity: 0.0003388
inclination: 42.9969°
perigee height: 354 km
apogee height: 359 km
right ascension of ascending node: 261.6416°
argument of perigee: 282.0407°
revolutions per day: 15.70907333
mean anomaly at epoch: 78.0081°

The dashed part of the orbit path shows where the satellite is in the earth's shadow,  

DLR